FW8575 Weather Reports


Display with metric or nautical units.
time (UTC)temp
F
wind
direction
speed
MPH
gust
MPH
rain 1hr
in
rain 24hr
in
rain mn
in
humidity
%
barometer
mb
20260509011505 56 186 3.0 6.0 0.00 0.03 0.00 84 1006.8
20260509010505 56 219 2.0 8.0 0.00 0.03 0.00 83 1006.8
20260509010004 56 206 3.0 7.0 0.00 0.03 0.00 83 1006.8
20260509005004 56 223 2.0 6.0 0.00 0.03 0.00 83 1006.8
20260509004505 56 188 2.0 6.0 0.00 0.03 0.00 83 1006.7
20260509004004 56 209 3.0 7.0 0.00 0.03 0.00 83 1006.7
20260509003505 56 203 2.0 5.0 0.00 0.03 0.00 83 1006.7
20260509003004 57 199 3.0 7.0 0.00 0.03 0.00 83 1006.7
20260509002505 57 167 3.0 8.0 0.00 0.03 0.00 83 1006.7
20260509002005 57 211 1.0 7.0 0.00 0.03 0.00 82 1006.7
20260509001505 57 186 2.0 5.0 0.00 0.03 0.00 82 1006.7
20260509001004 57 242 3.0 6.0 0.00 0.03 0.00 82 1006.8
20260509000505 57 211 3.0 7.0 0.00 0.03 0.00 82 1006.8
20260509000004 57 225 4.0 8.0 0.00 0.03 0.00 81 1006.7
20260508235505 57 188 2.0 6.0 0.00 0.03 0.00 81 1006.7
20260508235004 57 231 3.0 8.0 0.00 0.03 0.00 81 1006.8
20260508234504 57 231 3.0 8.0 0.00 0.03 0.00 80 1006.8
20260508234004 57 201 4.0 8.0 0.00 0.03 0.00 80 1006.8
20260508233504 57 213 6.0 12.0 0.00 0.03 0.00 80 1006.8
20260508233005 57 215 7.0 14.0 0.00 0.03 0.00 80 1006.8
20260508232504 57 228 6.0 12.0 0.00 0.03 0.00 79 1006.8
20260508232005 57 190 6.0 12.0 0.00 0.03 0.00 79 1006.8
20260508231504 58 219 5.0 9.0 0.00 0.03 0.00 79 1006.8
20260508231005 58 233 6.0 12.0 0.00 0.03 0.00 79 1006.8
20260508230504 58 212 7.0 14.0 0.00 0.03 0.00 79 1006.9
20260508230005 58 225 5.0 12.0 0.00 0.03 0.00 79 1007.0
20260508225504 58 215 5.0 12.0 0.00 0.03 0.00 79 1006.9
20260508225005 58 233 5.0 10.0 0.00 0.03 0.00 79 1006.9
20260508224504 58 206 8.0 12.0 0.00 0.03 0.00 78 1006.9
20260508224004 58 233 5.0 9.0 0.00 0.03 0.00 79 1007.0
20260508223506 58 201 3.0 10.0 0.00 0.03 0.00 79 1007.0
20260508223005 57 208 6.0 12.0 0.00 0.03 0.00 78 1007.1
20260508222504 57 211 9.0 15.0 0.00 0.03 0.00 78 1007.2
20260508222005 57 197 5.0 12.0 0.00 0.03 0.00 79 1007.3
20260508221004 58 191 7.0 12.0 0.00 0.03 0.00 78 1007.3
20260508220504 58 190 5.0 12.0 0.00 0.03 0.00 78 1007.2
20260508220004 58 201 4.0 8.0 0.00 0.03 0.00 77 1007.3
20260508215504 58 211 5.0 9.0 0.00 0.03 0.00 77 1007.1
20260508214504 59 215 3.0 10.0 0.00 0.03 0.00 76 1007.1
20260508214004 59 184 3.0 9.0 0.00 0.03 0.00 76 1007.0
20260508213504 59 182 4.0 12.0 0.00 0.03 0.00 75 1007.0
20260508213004 59 179 4.0 9.0 0.00 0.03 0.00 74 1006.9
20260508212505 59 191 3.0 10.0 0.00 0.03 0.00 74 1006.9
20260508212004 59 196 6.0 10.0 0.00 0.03 0.00 72 1007.0
20260508211005 59 174 4.0 9.0 0.00 0.03 0.00 73 1007.4
20260508210505 59 180 2.0 6.0 0.00 0.03 0.00 74 1007.4
20260508210004 58 217 6.0 8.0 0.00 0.03 0.00 74 1007.4
20260508205005 58 206 2.0 7.0 0.00 0.03 0.00 75 1007.5
20260508204505 58 235 6.0 7.0 0.00 0.03 0.00 75 1007.6
20260508204005 58 238 5.0 7.0 0.00 0.03 0.00 74 1007.6
20260508203504 58 198 3.0 7.0 0.00 0.03 0.00 74 1007.6
20260508203004 58 197 1.0 5.0 0.00 0.03 0.00 75 1007.6
20260508202004 57 229 4.0 7.0 0.00 0.03 0.00 74 1007.8
20260508201504 58 209 5.0 9.0 0.00 0.03 0.00 74 1007.9
20260508200503 58 220 5.0 10.0 0.00 0.03 0.00 74 1008.0
20260508200004 57 229 3.0 8.0 0.00 0.03 0.00 76 1008.1
20260508195504 57 204 3.0 8.0 0.00 0.03 0.00 76 1008.1
20260508195004 57 188 3.0 7.0 0.00 0.03 0.00 77 1008.2
20260508194505 56 240 5.0 9.0 0.00 0.03 0.00 78 1008.4
20260508194004 56 197 2.0 6.0 0.00 0.03 0.00 79 1008.4
20260508193504 56 195 2.0 5.0 0.00 0.03 0.00 80 1008.5
20260508192504 55 229 2.0 5.0 0.00 0.03 0.00 80 1008.8
20260508191504 55 234 0.0 0.0 0.00 0.03 0.00 81 1009.0
20260508190504 55 234 1.0 6.0 0.00 0.03 0.00 82 1009.1
20260508190004 55 232 0.0 5.0 0.00 0.03 0.00 83 1009.1
20260508185504 54 228 2.0 6.0 0.00 0.03 0.00 84 1009.2
20260508185004 54 215 1.0 5.0 0.00 0.03 0.00 84 1009.1
20260508184504 54 210 2.0 7.0 0.00 0.03 0.00 84 1009.1
20260508183504 54 232 4.0 6.0 0.00 0.03 0.00 83 1009.4
20260508183004 54 192 1.0 6.0 0.00 0.03 0.00 83 1009.5
20260508182504 54 194 2.0 5.0 0.00 0.03 0.00 83 1009.6
20260508182004 54 201 1.0 5.0 0.00 0.03 0.00 83 1009.6
20260508181504 54 213 2.0 5.0 0.00 0.03 0.00 83 1009.6
20260508181004 54 213 3.0 6.0 0.00 0.03 0.00 83 1009.7
20260508180504 53 198 1.0 3.0 0.00 0.03 0.00 83 1009.7
20260508180004 53 229 4.0 8.0 0.00 0.03 0.00 82 1009.8
20260508175504 53 245 5.0 8.0 0.00 0.03 0.00 82 1010.0
20260508175004 54 234 6.0 10.0 0.00 0.03 0.00 82 1010.0
20260508174004 54 184 3.0 8.0 0.00 0.03 0.00 82 1010.2
20260508173504 54 193 3.0 7.0 0.00 0.03 0.00 82 1010.2
20260508173004 54 216 5.0 8.0 0.00 0.03 0.00 82 1010.2
20260508172004 54 210 5.0 9.0 0.00 0.03 0.00 81 1010.3
20260508171504 55 229 3.0 8.0 0.00 0.03 0.00 83 1010.3
20260508171004 54 230 2.0 10.0 0.00 0.03 0.00 83 1010.4
20260508170503 54 244 7.0 10.0 0.00 0.03 0.00 83 1010.6
20260508170004 54 231 6.0 9.0 0.00 0.03 0.00 83 1010.6
20260508165504 54 196 5.0 10.0 0.00 0.03 0.00 83 1010.6
20260508165004 54 242 6.0 10.0 0.00 0.03 0.00 82 1010.7
20260508164504 55 234 7.0 10.0 0.00 0.03 0.00 82 1010.7
20260508164004 55 267 6.0 9.0 0.00 0.03 0.00 82 1010.9
20260508162006 55 211 6.0 12.0 0.00 0.03 0.00 83 1010.9
20260508161506 55 237 8.0 12.0 0.00 0.03 0.00 83 1010.9
20260508161006 54 229 5.0 8.0 0.00 0.03 0.00 83 1010.7
20260508155506 54 198 5.0 10.0 0.00 0.03 0.00 85 1010.7
20260508155006 54 228 6.0 12.0 0.00 0.03 0.00 85 1010.7
20260508154506 53 239 5.0 10.0 0.00 0.03 0.00 86 1010.7
20260508154006 53 207 6.0 10.0 0.00 0.03 0.00 85 1010.8
20260508153506 53 223 5.0 12.0 0.00 0.03 0.00 86 1010.8
20260508153006 52 186 4.0 9.0 0.00 0.03 0.00 86 1010.8
20260508152006 52 194 5.0 10.0 0.00 0.03 0.00 87 1010.8
20260508151506 52 214 5.0 12.0 0.00 0.03 0.00 87 1010.8
20260508151006 51 187 2.0 6.0 0.00 0.03 0.00 88 1010.8
20260508150506 51 238 5.0 7.0 0.00 0.03 0.00 87 1011.1
20260508150006 50 236 3.0 7.0 0.00 0.03 0.00 88 1011.1
20260508145506 50 248 3.0 8.0 0.00 0.03 0.00 88 1011.2
20260508145007 50 230 5.0 7.0 0.00 0.03 0.00 88 1011.2
20260508144506 50 225 3.0 6.0 0.00 0.03 0.00 88 1011.4
20260508144006 50 238 2.0 7.0 0.00 0.03 0.00 87 1011.6
20260508143506 50 223 3.0 7.0 0.00 0.03 0.00 87 1011.6
20260508143007 50 230 5.0 7.0 0.00 0.03 0.00 87 1011.6
20260508142506 50 238 1.0 5.0 0.00 0.03 0.00 88 1011.6
20260508142006 50 239 1.0 6.0 0.00 0.03 0.00 88 1011.4
20260508141506 50 209 2.0 3.0 0.00 0.03 0.00 88 1011.5
20260508141006 50 238 0.0 2.0 0.00 0.03 0.00 88 1011.4
20260508140506 49 237 2.0 5.0 0.00 0.03 0.00 88 1011.6
20260508135506 49 215 2.0 3.0 0.00 0.03 0.00 88 1011.4
20260508135006 49 218 4.0 6.0 0.00 0.03 0.00 88 1011.5
20260508134506 49 246 2.0 6.0 0.00 0.03 0.00 89 1011.5
20260508134006 49 237 1.0 5.0 0.00 0.03 0.00 89 1011.6
20260508133506 49 237 0.0 0.0 0.00 0.03 0.00 89 1011.5
20260508133006 49 236 1.0 3.0 0.00 0.03 0.00 89 1011.5
20260508132505 49 231 2.0 5.0 0.00 0.03 0.00 89 1011.3
20260508132006 49 221 2.0 7.0 0.00 0.03 0.00 89 1011.3
20260508131505 48 247 3.0 5.0 0.00 0.03 0.00 89 1011.3
20260508131006 48 257 3.0 7.0 0.00 0.03 0.00 90 1011.3
20260508130506 48 240 2.0 6.0 0.00 0.03 0.00 90 1011.3
20260508130005 48 237 2.0 6.0 0.00 0.03 0.00 91 1011.3
20260508125006 47 239 3.0 5.0 0.00 0.03 0.00 91 1011.3
20260508124506 47 261 3.0 6.0 0.00 0.03 0.00 92 1011.4
20260508123506 47 244 2.0 5.0 0.00 0.03 0.00 92 1011.3
20260508123005 46 246 1.0 5.0 0.00 0.03 0.00 92 1011.3
20260508122506 46 240 3.0 3.0 0.00 0.03 0.00 92 1011.3
20260508122006 46 242 1.0 6.0 0.00 0.03 0.00 92 1011.3
20260508120505 46 226 0.0 2.0 0.00 0.03 0.00 93 1011.3
20260508120006 45 225 0.0 2.0 0.00 0.03 0.00 92 1011.3
20260508115507 45 224 0.0 0.0 0.00 0.03 0.00 92 1011.3
20260508114506 45 224 0.0 0.0 0.00 0.03 0.00 93 1011.3
20260508113507 44 224 0.0 0.0 0.00 0.03 0.00 92 1011.1
20260508113006 44 224 0.0 0.0 0.00 0.03 0.00 92 1011.0
20260508112505 44 224 0.0 0.0 0.00 0.03 0.00 92 1011.1
20260508112006 44 224 0.0 0.0 0.00 0.03 0.00 92 1010.9
20260508111006 43 227 1.0 3.0 0.00 0.03 0.00 92 1010.8
20260508110506 43 225 0.0 0.0 0.00 0.03 0.00 92 1010.8
20260508110006 43 223 0.0 0.0 0.00 0.03 0.00 92 1010.8
20260508105505 43 224 0.0 0.0 0.00 0.03 0.00 92 1010.8
20260508105006 43 226 0.0 0.0 0.00 0.03 0.00 92 1010.8
20260508104506 43 226 0.0 0.0 0.00 0.03 0.00 92 1010.8
20260508104005 43 226 0.0 0.0 0.00 0.03 0.00 92 1010.7
20260508103506 43 226 0.0 0.0 0.00 0.03 0.00 92 1010.7
20260508102506 43 226 0.0 0.0 0.00 0.03 0.00 92 1010.6
20260508102006 43 225 0.0 0.0 0.00 0.03 0.00 92 1010.5
20260508101006 43 226 0.0 2.0 0.00 0.03 0.00 92 1010.6
20260508100006 43 230 0.0 5.0 0.00 0.03 0.00 92 1010.7
20260508095006 42 228 0.0 0.0 0.00 0.03 0.00 92 1010.7
20260508093505 43 230 0.0 1.0 0.00 0.03 0.00 92 1010.7
20260508093005 43 230 0.0 1.0 0.00 0.03 0.00 92 1010.7
20260508092506 43 229 1.0 3.0 0.00 0.03 0.00 92 1010.7
20260508092005 43 229 0.0 2.0 0.00 0.03 0.00 92 1010.8
20260508091506 43 229 1.0 3.0 0.00 0.03 0.00 91 1010.8
20260508091005 43 230 1.0 5.0 0.00 0.03 0.00 91 1010.8
20260508090505 43 231 1.0 2.0 0.00 0.03 0.00 91 1010.8
20260508090005 43 231 0.0 1.0 0.00 0.03 0.00 92 1010.8
20260508085505 43 231 1.0 5.0 0.00 0.03 0.00 92 1010.8
20260508085006 43 234 0.0 3.0 0.00 0.03 0.00 92 1010.9
20260508084006 43 234 1.0 5.0 0.00 0.03 0.00 91 1010.9
20260508083505 43 211 0.0 0.0 0.00 0.03 0.00 91 1010.8
20260508083005 43 211 0.0 0.0 0.00 0.03 0.00 91 1010.8
20260508082506 43 211 0.0 0.0 0.00 0.03 0.00 92 1010.8
20260508081506 42 211 0.0 0.0 0.00 0.03 0.00 91 1010.9
20260508081005 42 211 0.0 0.0 0.00 0.03 0.00 91 1010.9
20260508080506 42 211 0.0 0.0 0.00 0.03 0.00 91 1010.9
20260508080005 42 211 0.0 0.0 0.00 0.03 0.00 91 1010.9
20260508075006 42 211 0.0 0.0 0.00 0.03 0.00 90 1010.9
20260508074505 42 211 0.0 0.0 0.00 0.03 0.00 90 1010.9
20260508074006 42 211 0.0 0.0 0.00 0.03 0.00 90 1010.9
20260508073505 42 211 0.0 0.0 0.00 0.03 0.00 90 1010.9
20260508073005 43 211 0.0 0.0 0.00 0.03 0.00 90 1010.9
20260508072505 43 211 0.0 0.0 0.00 0.03 0.00 90 1010.8
20260508072005 43 211 0.0 0.0 0.00 0.03 0.00 90 1010.8
20260508071506 43 211 0.0 0.0 0.00 0.03 0.00 90 1010.9
20260508071005 43 211 0.0 0.0 0.00 0.03 0.00 90 1010.9
20260508070005 43 211 0.0 0.0 0.00 0.03 0.00 90 1010.9
20260508065505 43 211 0.0 0.0 0.00 0.03 0.00 90 1010.9
20260508065006 43 211 0.0 0.0 0.00 0.03 0.00 90 1010.9
20260508064505 43 211 0.0 0.0 0.00 0.03 0.00 90 1010.9
20260508064006 44 211 0.0 0.0 0.00 0.03 0.00 90 1011.0
20260508063505 44 211 0.0 0.0 0.00 0.03 0.00 90 1011.1
20260508062505 44 211 0.0 1.0 0.00 0.03 0.00 90 1011.2
20260508062005 44 211 0.0 2.0 0.00 0.03 0.00 90 1011.2
20260508061506 44 211 0.0 0.0 0.00 0.03 0.00 90 1011.3
20260508060505 44 211 0.0 0.0 0.00 0.03 0.00 90 1011.3
20260508055505 44 211 0.0 3.0 0.00 0.03 0.00 90 1011.4
20260508055005 44 211 0.0 1.0 0.00 0.03 0.00 90 1011.4
20260508054505 45 212 0.0 2.0 0.00 0.03 0.00 90 1011.4
20260508054005 45 212 1.0 6.0 0.00 0.03 0.00 89 1011.4
20260508053505 45 190 1.0 3.0 0.00 0.03 0.00 89 1011.4
20260508053005 45 191 0.0 1.0 0.00 0.03 0.00 90 1011.4
20260508052505 45 192 2.0 5.0 0.00 0.03 0.00 90 1011.4
20260508051505 45 195 0.0 2.0 0.00 0.03 0.00 89 1011.4
20260508051005 45 196 1.0 3.0 0.00 0.03 0.00 89 1011.4
20260508050505 45 169 0.0 2.0 0.00 0.03 0.00 89 1011.4
20260508050005 45 168 1.0 2.0 0.00 0.03 0.00 89 1011.5
20260508045505 45 196 0.0 1.0 0.00 0.03 0.00 89 1011.5
20260508045005 45 196 0.0 2.0 0.00 0.03 0.00 89 1011.5
20260508044505 45 196 1.0 2.0 0.00 0.03 0.00 89 1011.5
20260508044005 45 197 0.0 1.0 0.00 0.03 0.00 89 1011.4
20260508043505 45 197 0.0 2.0 0.00 0.03 0.00 89 1011.5
20260508042505 45 199 1.0 3.0 0.00 0.03 0.00 88 1011.4
20260508042005 46 207 0.0 1.0 0.00 0.03 0.00 88 1011.4
20260508041505 46 207 0.0 2.0 0.00 0.03 0.00 88 1011.4
20260508041005 46 207 0.0 2.0 0.00 0.03 0.00 88 1011.4
20260508040005 46 207 1.0 3.0 0.00 0.03 0.00 88 1011.5
20260508035505 46 215 0.0 2.0 0.00 0.03 0.03 88 1011.4
20260508035005 46 220 0.0 2.0 0.00 0.03 0.03 88 1011.5
20260508034505 46 222 1.0 5.0 0.00 0.03 0.03 88 1011.6
20260508034005 46 202 0.0 5.0 0.00 0.03 0.03 87 1011.6
20260508033505 46 200 2.0 5.0 0.00 0.03 0.03 87 1011.8
20260508033005 46 198 0.0 1.0 0.00 0.03 0.03 86 1011.7
20260508032505 46 196 0.0 1.0 0.02 0.03 0.03 86 1011.6
20260508032005 46 196 1.0 3.0 0.03 0.03 0.03 86 1011.5
20260508031505 46 194 0.0 3.0 0.03 0.03 0.03 86 1011.5
20260508031005 46 193 0.0 1.0 0.03 0.03 0.03 86 1011.4
20260508030505 46 192 0.0 0.0 0.03 0.03 0.03 86 1011.4
20260508025505 46 186 2.0 8.0 0.03 0.03 0.03 86 1011.3
20260508025004 46 169 3.0 10.0 0.03 0.03 0.03 86 1011.1
20260508024505 47 164 7.0 18.0 0.03 0.03 0.03 85 1011.1
20260508024005 47 177 1.0 5.0 0.03 0.03 0.03 84 1011.9
20260508023505 47 269 0.0 6.0 0.03 0.03 0.03 83 1012.3
20260508023005 47 308 2.0 5.0 0.03 0.03 0.03 83 1012.4
20260508022505 48 228 2.0 10.0 0.01 0.01 0.01 81 1012.5
20260508022005 48 267 6.0 8.0 0.00 0.00 0.00 79 1012.9
20260508021504 49 305 3.0 7.0 0.00 0.00 0.00 78 1012.5
20260508021005 49 296 3.0 6.0 0.00 0.00 0.00 77 1012.2
20260508020505 49 209 0.0 0.0 0.00 0.00 0.00 77 1011.9
20260508020005 49 207 0.0 1.0 0.00 0.00 0.00 76 1011.8
20260508015005 49 205 0.0 0.0 0.00 0.00 0.00 74 1011.5
20260508014005 49 205 0.0 0.0 0.00 0.00 0.00 73 1011.3
20260508013504 49 205 0.0 2.0 0.00 0.00 0.00 72 1011.3
20260508013005 49 205 0.0 0.0 0.00 0.00 0.00 72 1011.2
20260508012504 49 205 0.0 0.0 0.00 0.00 0.00 72 1011.0
20260508012005 49 205 0.0 0.0 0.00 0.00 0.00 72 1010.9